Midland City, AL

6:01 AM CDT on July 26, 2016 (GMT -0500)
Dothan Regional

Weather History for KDHN - May, 2013

Change the Weather History Date:

Tuesday, May 28, 2013

  Actual Average Record
Temperature  
Mean Temperature 78 °F 77 °F  
Max Temperature 91 °F 88 °F 98 °F (1937)
Min Temperature 64 °F 66 °F 49 °F (1961)
Cooling Degree Days 13 12  
Month to date cooling degree days 194 255  
Year to date cooling degree days 324 376  
Growing Degree Days 26 (Base 50)    
Moisture  
Dew Point 58 °F    
Average Humidity 55    
Maximum Humidity 87    
Minimum Humidity 27    
Precipitation  
Precipitation 0.00 in 0.18 in 2.15 in (2002)
Month to date precipitation 0.03 3.01  
Year to date precipitation 12.89 21.81  
Sea Level Pressure  
Sea Level Pressure 30.14 in    
Wind  
Wind Speed 5 mph (SE)    
Max Wind Speed 10 mph    
Max Gust Speed 26 mph    
Visibility 10 miles    
Events      
T = Trace of Precipitation, MM = Missing Value Source: NWS Daily Summary

Daily Weather History Graph

Daily Weather History Graph

Search for Another Location

Airport or City:

Trip Planner

Search our weather history database for the weather conditions in past years. The results will help you decide how hot, cold, wet, or windy it might be!

Date:

Astronomy

May. 28, 2013 Rise Set
Actual Time 5:39 AM CDT 7:39 PM CDT
Civil Twilight 5:11 AM CDT 8:06 PM CDT
Nautical Twilight 4:38 AM CDT 8:39 PM CDT
Astronomical Twilight 4:03 AM CDT 9:15 PM CDT
Moon 11:10 PM CDT (5/28) 9:20 AM CDT (5/28)
Length of Visible Light 14h 54m
Length of Day
14h 00m
Waning Gibbous, 82% of the Moon is Illuminated
May 28
Waning Gibbous
May 31
Last Quarter
Jun 8
New
Jun 16
First Quarter
Jun 23
Full

Hourly Weather History & Observations

Time (CDT) Temp. Heat Index Dew Point Humidity Pressure Visibility Wind Dir Wind Speed Gust Speed Precip Events Conditions
12:53 AM 66.9 °F - 61.0 °F 81% 30.15 in 10.0 mi Calm Calm - N/A   Clear
1:53 AM 69.1 °F - 62.1 °F 78% 30.16 in 10.0 mi ESE 6.9 mph - N/A   Clear
2:53 AM 66.9 °F - 61.0 °F 81% 30.15 in 10.0 mi Calm Calm - N/A   Clear
3:53 AM 66.0 °F - 60.1 °F 81% 30.16 in 10.0 mi SE 6.9 mph - N/A   Clear
4:53 AM 64.9 °F - 60.1 °F 84% 30.16 in 10.0 mi ESE 5.8 mph - N/A   Clear
5:53 AM 64.0 °F - 60.1 °F 87% 30.16 in 10.0 mi ESE 4.6 mph - N/A   Clear
6:53 AM 66.9 °F - 60.1 °F 79% 30.17 in 10.0 mi ESE 6.9 mph - N/A   Clear
7:53 AM 71.1 °F - 62.1 °F 73% 30.17 in 10.0 mi ESE 6.9 mph - N/A   Clear
8:53 AM 77.0 °F - 64.0 °F 64% 30.17 in 10.0 mi SE 6.9 mph - N/A   Clear
9:53 AM 81.0 °F 82.2 °F 63.0 °F 54% 30.17 in 10.0 mi Variable 4.6 mph - N/A   Clear
10:53 AM 84.0 °F 84.4 °F 61.0 °F 46% 30.17 in 10.0 mi East 9.2 mph - N/A   Clear
11:53 AM 86.0 °F 85.4 °F 59.0 °F 40% 30.16 in 10.0 mi SE 9.2 mph - N/A   Clear
12:53 PM 88.0 °F 86.5 °F 55.9 °F 34% 30.15 in 10.0 mi SSE 9.2 mph - N/A   Clear
1:53 PM 88.0 °F 86.5 °F 55.9 °F 34% 30.13 in 10.0 mi Variable 6.9 mph - N/A   Partly Cloudy
2:53 PM 89.1 °F 87.1 °F 55.0 °F 31% 30.11 in 10.0 mi ESE 9.2 mph 19.6 mph N/A   Clear
3:53 PM 89.1 °F - 51.1 °F 27% 30.10 in 10.0 mi SE 10.4 mph - N/A   Clear
4:53 PM 89.1 °F - 51.1 °F 27% 30.09 in 10.0 mi ESE 10.4 mph - N/A   Clear
5:53 PM 88.0 °F 85.7 °F 53.1 °F 30% 30.08 in 10.0 mi East 9.2 mph - N/A   Clear
6:53 PM 86.0 °F - 51.1 °F 30% 30.08 in 10.0 mi ESE 8.1 mph 26.5 mph N/A   Clear
7:53 PM 80.1 °F - 52.0 °F 38% 30.10 in 10.0 mi ESE 4.6 mph - N/A   Clear
8:53 PM 75.9 °F - 53.1 °F 45% 30.12 in 10.0 mi SE 5.8 mph - N/A   Clear
9:53 PM 75.0 °F - 55.9 °F 51% 30.13 in 10.0 mi Calm Calm - N/A   Clear
10:53 PM 71.1 °F - 55.9 °F 59% 30.14 in 10.0 mi SSE 3.5 mph - N/A   Clear
11:53 PM 69.1 °F - 57.9 °F 68% 30.14 in 10.0 mi Calm Calm - N/A   Clear